Location: Castro Valley
(37.6940°N, 122.0850°W)
Time: 22:55:54
(UTC-07:00)

Amateur Radio Satellites - All Passes

Search period start: 01 May 2016 22:25
Search period end: 02 May 2016 22:25
Location: Castro Valley, 37.6940°N, 122.0850°W

Satellite Date Start Highest point End Downlink Frequencies (MHz)
Time Altitude Azimuth
UWE-3 01 May 22:30:37 22:34:16 23° 265° (W) 22:37:54 435.000/436.395/437.385
ESTCUBE 1 01 May 22:30:50 22:32:39 12° 64° (ENE) 22:34:28 437.505/2401.250
HO-68 01 May 22:36:15 22:37:43 11° 272° (W) 22:39:12 435.675
CUBEBUG 2 01 May 22:36:59 22:39:35 15° 268° (W) 22:42:11 437.445
HUMSAT D 01 May 22:39:56 22:44:10 82° 77° (ENE) 22:48:23 437.325/437.525
PRISM 01 May 22:51:43 22:53:17 12° 296° (WNW) 22:54:51 437.425
AO-85 01 May 22:52:21 22:57:00 63° 243° (WSW) 23:01:12 145.980
CUBEBUG 1 01 May 22:55:45 22:58:24 16° 66° (ENE) 23:01:03 437.445
UNISAT 6 01 May 22:57:09 23:00:58 30° 97° (E) 23:04:43 437.425
ZACube-1 01 May 23:05:15 23:07:39 14° 268° (W) 23:10:02 437.345
TIGRISAT 01 May 23:14:49 23:18:59 45° 99° (E) 23:23:03 435.000
VELOX 1 01 May 23:18:49 23:22:39 29° 70° (ENE) 23:26:29 145.980
DX 1 01 May 23:19:39 23:23:18 27° 69° (ENE) 23:26:58 434.975-435.025
50 SAT 01 May 23:26:48 23:30:11 37° 73° (ENE) 23:33:34 437.505
DELFI C3 01 May 23:27:16 23:28:25 11° 269° (W) 23:29:35 145.870
UKube-1 01 May 23:28:08 23:31:45 27° 69° (ENE) 23:35:24 .
RS-15 01 May 23:35:09 23:46:08 54° 310° (NW) 23:57:47 29.354- 29.394
ANTELSAT 01 May 23:39:03 23:43:23 86° 286° (WNW) 23:47:39 437.575/2403.000
SRMSAT 01 May 23:40:39 23:43:10 13° 185° (S) 23:45:39 437.500
QB50P2 01 May 23:47:41 23:50:58 21° 95° (E) 23:54:13 145.880/145.840
DUCHIFAT 1 01 May 23:49:02 23:52:03 19° 94° (E) 23:55:02 145.980
POLYITAN 1 01 May 23:49:49 23:53:07 22° 95° (E) 23:56:22 437.675
AISAT 01 May 23:50:04 23:54:28 71° 76° (ENE) 23:58:56 437.250
POPSAT HIP 1 01 May 23:52:38 23:56:01 23° 95° (E) 23:59:22 437.405
QB50P1 01 May 23:55:52 23:59:23 25° 96° (E) 00:02:54 145.935-145.965
SPROUT 01 May 23:59:51 00:03:35 29° 71° (ENE) 00:07:20 437.525
ESTCUBE 1 02 May 00:04:30 00:08:54 60° 259° (W) 00:13:21 437.505/2401.250
O/OREOS (USA 219) 02 May 00:19:43 00:22:30 16° 57° (ENE) 00:25:15 437.305
CUBEBUG 1 02 May 00:30:09 00:34:18 43° 261° (W) 00:38:30 437.445
NANOSAT C BR1 02 May 00:30:45 00:34:59 64° 102° (ESE) 00:39:08 145.865
AIST 1 02 May 00:31:39 00:35:33 35° 91° (E) 00:39:31
UNISAT 6 02 May 00:34:16 00:37:29 21° 292° (WNW) 00:40:41 437.425
BUGSAT 1 02 May 00:34:46 00:38:29 30° 97° (E) 00:42:08 437.445
TISAT 1 02 May 00:38:06 00:41:28 23° 69° (ENE) 00:44:51 437.305
GONETS M04 02 May 00:50:25 00:59:02 60° 91° (E) 01:07:40
TIGRISAT 02 May 00:52:56 00:55:15 14° 295° (WNW) 00:57:32 435.000
VELOX 1 02 May 00:55:36 00:59:05 23° 265° (W) 01:02:36 145.980
DX 1 02 May 00:55:53 00:59:25 24° 264° (W) 01:02:59 434.975-435.025
50 SAT 02 May 01:02:47 01:04:08 12° 267° (W) 01:05:29 437.505
UKube-1 02 May 01:04:16 01:07:44 23° 264° (W) 01:11:14 .
CUSAT 1 02 May 01:19:43 01:24:58 21° 69° (ENE) 01:30:35 437.405
JAS-2 02 May 01:22:55 01:30:00 36° 95° (E) 01:36:59 435.910
QB50P2 02 May 01:23:07 01:26:44 28° 290° (WNW) 01:30:20 145.880/145.840
DUCHIFAT 1 02 May 01:24:03 01:27:47 31° 289° (WNW) 01:31:29 145.980
POLYITAN 1 02 May 01:25:17 01:28:53 27° 290° (WNW) 01:32:26 437.675
Oscar 19 02 May 01:25:28 01:28:27 15° 92° (E) 01:31:24 437.125/150
PCSat 02 May 01:27:36 01:33:00 60° 60° (ENE) 01:38:20 145.827
POPSAT HIP 1 02 May 01:28:11 01:31:44 26° 290° (WNW) 01:35:15 437.405
QB50P1 02 May 01:31:39 01:35:03 24° 291° (WNW) 01:38:26 145.935-145.965
Cosmos 2499 02 May 01:35:44 01:42:42 60° 92° (E) 01:49:38 435.465 / 435.565
SPROUT 02 May 01:36:13 01:39:32 21° 265° (W) 01:42:52 437.525
ITUPSAT 1 02 May 01:38:51 01:42:23 21° 66° (ENE) 01:45:55 437.325
SWISSCUBE 02 May 01:48:09 01:52:14 29° 69° (ENE) 01:56:20 437.505
DANDE 02 May 01:53:32 01:57:55 18° 71° (ENE) 02:02:47 436.750
RS-15 02 May 01:54:11 02:02:19 21° 340° (NNW) 02:10:44 29.354- 29.394
O/OREOS (USA 219) 02 May 01:57:50 02:02:11 48° 254° (WSW) 02:06:29 437.305
NANOSAT C BR1 02 May 02:09:27 02:10:07 10° 297° (WNW) 02:10:47 145.865
AIST 1 02 May 02:10:30 02:13:17 17° 287° (WNW) 02:16:04
BUGSAT 1 02 May 02:10:35 02:13:39 20° 292° (WNW) 02:16:41 437.445
TISAT 1 02 May 02:13:23 02:16:59 26° 264° (W) 02:20:36 437.305
BEESAT 02 May 02:20:47 02:25:26 58° 74° (ENE) 02:30:07 436.000
ITAMSAT 1 02 May 02:42:27 02:44:47 13° 91° (E) 02:47:08 435.822/435.867
GONETS M04 02 May 02:49:03 02:56:20 28° 290° (WNW) 03:03:40
Gurwin Techsat 1B 02 May 02:50:10 02:55:11 42° 99° (E) 03:00:11 435.225
CUSAT 1 02 May 03:00:16 03:07:35 80° 264° (W) 03:15:41 437.405
BEESAT 3 02 May 03:00:40 03:02:55 14° 47° (NE) 03:05:09 437.485
MOZHAYETS 4 02 May 03:02:57 03:04:35 12° 64° (ENE) 03:06:13
Oscar 19 02 May 03:03:00 03:08:06 58° 287° (WNW) 03:13:10 437.125/150
KKS-1 02 May 03:04:29 03:07:45 20° 67° (ENE) 03:11:02 437.445
BEESAT 2 02 May 03:07:23 03:08:15 11° 43° (NE) 03:09:07 435.950
JAS-2 02 May 03:07:38 03:14:59 47° 291° (WNW) 03:22:20 435.910
PCSat 02 May 03:12:31 03:15:50 17° 256° (WSW) 03:19:07 145.827
AO-7 02 May 03:15:00 03:18:34 13° 90° (E) 03:22:08 29.400- 29.500
ITUPSAT 1 02 May 03:15:33 03:19:56 37° 261° (W) 03:24:22 437.325
STARS 02 May 03:24:02 03:26:52 17° 66° (ENE) 03:29:43 437.465
SWISSCUBE 02 May 03:26:01 03:29:58 26° 264° (W) 03:33:57 437.505
Cosmos 2499 02 May 03:31:13 03:36:18 21° 291° (WNW) 03:41:25 435.465 / 435.565
DANDE 02 May 03:34:23 03:41:04 83° 262° (W) 03:49:12 436.750
BEESAT 02 May 04:01:27 04:03:34 13° 268° (W) 04:05:42 436.000
RS-15 02 May 04:13:18 04:21:29 20° 18° (NNE) 04:29:46 29.354- 29.394
ITAMSAT 1 02 May 04:19:32 04:24:41 66° 286° (WNW) 04:29:49 435.822/435.867
Gurwin Techsat 1B 02 May 04:30:45 04:34:50 23° 294° (WNW) 04:38:55 435.225
MOZHAYETS 4 02 May 04:36:38 04:41:10 65° 259° (W) 04:45:43
BEESAT 3 02 May 04:37:05 04:40:55 51° 244° (WSW) 04:44:43 437.485
KKS-1 02 May 04:39:59 04:44:05 35° 262° (W) 04:48:11 437.445
BEESAT 2 02 May 04:42:39 04:46:38 81° 241° (WSW) 04:50:35 435.950
CUBESAT XI-V 02 May 04:44:30 04:47:13 16° 65° (ENE) 04:49:57 437.345
CUSAT 1 02 May 04:45:17 04:48:53 14° 277° (W) 04:52:36 437.405
STARS 02 May 04:58:41 05:02:52 41° 261° (W) 05:07:06 437.465
AO-7 02 May 05:04:03 05:12:26 79° 107° (ESE) 05:20:47 29.400- 29.500
YUBILEINY 02 May 05:19:42 05:26:28 24° 68° (ENE) 05:33:11 435.215
DANDE 02 May 05:20:03 05:23:23 14° 274° (W) 05:26:58 436.750
NOAA 18 02 May 05:51:57 05:53:02 11° 90° (E) 05:54:07 137.9125
BRITE-PL 02 May 05:59:04 06:00:25 11° 87° (E) 06:01:47 437.365/2234.400
HORYU 2 02 May 05:59:44 06:04:11 84° 284° (WNW) 06:08:34 437.375
Cosmos 2491 02 May 06:01:35 06:08:06 24° 81° (E) 06:14:37 435.465 / 435.565
AIST 2 02 May 06:07:54 06:11:59 54° 57° (ENE) 06:16:01 435.215
CUBESAT XI-V 02 May 06:19:45 06:24:10 48° 261° (W) 06:28:39 437.345
LilacSat-2 02 May 06:24:41 06:26:10 12° 92° (E) 06:27:38 437.200
RS-15 02 May 06:26:19 06:38:08 49° 48° (NE) 06:49:55 29.354- 29.394
Cubesat XI-IV 02 May 06:27:22 06:31:07 19° 94° (E) 06:34:50 437.490
NOAA 15 02 May 06:27:28 06:32:07 30° 97° (E) 06:36:43 137.62
ISS 02 May 06:40:58 06:42:46 14° 129° (SE) 06:44:33 145.825
AO-7 02 May 06:58:16 07:04:18 23° 305° (NW) 07:10:21 29.400- 29.500
GOMX 1 02 May 07:11:55 07:16:31 28° 94° (E) 07:20:55 467.674
DOVE 4 02 May 07:13:32 07:15:33 12° 88° (E) 07:17:32 437.250
YUBILEINY 02 May 07:15:19 07:23:55 67° 268° (W) 07:32:32 435.215
STRAND 1 02 May 07:19:42 07:24:43 61° 73° (ENE) 07:29:45 437.568
Cosmos 2504 02 May 07:20:08 07:27:02 36° 75° (ENE) 07:34:20 435.465 / 435.565
CUTE-I 02 May 07:21:56 07:27:14 66° 102° (ESE) 07:32:31 437.470
NOAA 18 02 May 07:28:48 07:34:17 84° 285° (WNW) 07:39:44 137.9125
BRITE-PL 02 May 07:33:47 07:39:33 89° 279° (W) 07:45:08 437.365/2234.400
SO-50 02 May 07:42:24 07:47:18 84° 120° (ESE) 07:52:15 436.795
AIST 2 02 May 07:48:26 07:49:58 12° 252° (WSW) 07:51:30 435.215
M-CUBED/EXP-1 PRIME 02 May 07:49:51 07:53:22 32° 101° (ESE) 07:56:37 437.505
Cosmos 2491 02 May 07:55:19 08:04:05 68° 279° (W) 08:12:55 435.465 / 435.565
LilacSat-2 02 May 07:57:06 08:00:40 39° 286° (WNW) 08:04:11 437.200
PRISM 02 May 08:02:15 08:05:47 29° 70° (ENE) 08:09:22 437.425
CINEMA 3 02 May 08:02:50 08:03:36 10° 89° (E) 08:04:23 145.822/145.860
Cubesat XI-IV 02 May 08:06:18 08:11:24 48° 289° (WNW) 08:16:29 437.490
NOAA 15 02 May 08:07:10 08:11:49 31° 292° (WNW) 08:16:26 137.62
AUBIESAT-1 02 May 08:08:57 08:12:40 45° 104° (ESE) 08:16:05 437.475
CANX-2 02 May 08:09:59 08:12:09 14° 92° (E) 08:14:19 2200.000
HO-68 02 May 08:12:44 08:18:08 23° 94° (E) 08:23:31 435.675
ISS 02 May 08:15:43 08:18:54 50° 324° (NW) 08:22:06 145.825
RS-15 02 May 08:39:04 08:50:46 53° 250° (WSW) 09:02:25 29.354- 29.394
CUTE 1.7 + AOD 2 02 May 08:41:39 08:45:19 28° 96° (E) 08:48:57 437.475
DOVE 4 02 May 08:48:40 08:53:46 66° 285° (WNW) 08:58:34 437.250
GOMX 1 02 May 08:49:40 08:54:34 35° 290° (WNW) 08:59:15 467.674
CUBEBUG 2 02 May 08:53:38 08:54:54 11° 90° (E) 08:56:10 437.445
STRAND 1 02 May 09:01:41 09:04:16 14° 268° (W) 09:06:51 437.568
CUTE-I 02 May 09:03:43 09:06:41 15° 298° (WNW) 09:09:39 437.470
SEEDS 02 May 09:09:46 09:13:47 44° 99° (E) 09:17:47 437.485
NOAA 18 02 May 09:12:57 09:14:04 11° 302° (WNW) 09:15:12 137.9125
Cosmos 2504 02 May 09:13:21 09:20:22 41° 271° (W) 09:27:52 435.465 / 435.565
COMPASS 1 02 May 09:14:24 09:18:13 34° 98° (E) 09:22:01 437.405
BRITE-PL 02 May 09:14:50 09:17:07 13° 299° (WNW) 09:19:24 437.365/2234.400
M-CUBED/EXP-1 PRIME 02 May 09:25:09 09:27:37 16° 299° (WNW) 09:29:59 437.505
SO-50 02 May 09:25:42 09:28:25 15° 318° (NW) 09:31:08 436.795
CINEMA 3 02 May 09:36:39 09:41:15 63° 285° (WNW) 09:45:36 145.822/145.860
PRISM 02 May 09:38:14 09:41:07 19° 265° (W) 09:44:03 437.425
CANX-2 02 May 09:44:12 09:48:12 43° 287° (WNW) 09:52:12 2200.000
AUBIESAT-1 02 May 09:45:10 09:46:40 12° 301° (WNW) 09:48:07 437.475
AAUSAT CUBESAT 2 02 May 09:45:35 09:49:43 67° 101° (E) 09:53:51 437.432
UNISAT 6 02 May 09:54:09 09:57:52 24° 69° (ENE) 10:01:32 437.425
ISS 02 May 09:54:48 09:55:59 11° 342° (NNW) 09:57:10 145.825
HO-68 02 May 09:59:13 10:06:15 62° 290° (WNW) 10:13:16 435.675
Cosmos 2491 02 May 09:59:58 10:02:45 12° 301° (WNW) 10:05:33 435.465 / 435.565
Oscar 11 02 May 10:00:31 10:04:32 37° 98° (E) 10:08:31 145.826/435.025
PHONESAT 2.4 02 May 10:06:04 10:08:50 29° 151° (SSE) 10:11:38 2401.200-2431.200
TIGRISAT 02 May 10:11:19 10:15:31 34° 71° (ENE) 10:19:40 435.000
FUNcube-1 02 May 10:11:23 10:15:19 39° 98° (E) 10:19:11 145.935
CUTE 1.7 + AOD 2 02 May 10:17:46 10:20:58 21° 291° (WNW) 10:24:10 437.475
UWE-3 02 May 10:21:14 10:25:30 88° 97° (E) 10:29:40 435.000/436.395/437.385
HUMSAT D 02 May 10:26:48 10:29:01 14° 93° (E) 10:31:13 437.325/437.525
CUBEBUG 2 02 May 10:27:41 10:31:54 52° 286° (WNW) 10:35:58 437.445
ANTELSAT 02 May 10:35:21 10:39:58 66° 75° (ENE) 10:44:32 437.575/2403.000
QB50P2 02 May 10:39:37 10:41:51 14° 65° (ENE) 10:44:06 145.880/145.840
DUCHIFAT 1 02 May 10:40:37 10:42:18 12° 64° (ENE) 10:43:59 145.980
POLYITAN 1 02 May 10:41:42 10:44:00 14° 66° (ENE) 10:46:18 437.675
POPSAT HIP 1 02 May 10:44:19 10:46:44 15° 66° (ENE) 10:49:08 437.405
SEEDS 02 May 10:46:52 10:49:05 14° 294° (WNW) 10:51:19 437.485
QB50P1 02 May 10:47:20 10:49:59 16° 66° (ENE) 10:52:39 145.935-145.965
COMPASS 1 02 May 10:50:45 10:53:29 17° 292° (WNW) 10:56:14 437.405
ZACube-1 02 May 10:53:14 10:57:23 58° 285° (WNW) 11:01:26 437.345
DELFI C3 02 May 11:03:34 11:07:34 78° 284° (WNW) 11:11:33 145.870
GONETS M04 02 May 11:03:50 11:10:54 26° 69° (ENE) 11:17:53
NANOSAT C BR1 02 May 11:20:59 11:24:54 36° 72° (ENE) 11:28:49 145.865
BUGSAT 1 02 May 11:23:21 11:26:11 18° 67° (ENE) 11:29:03 437.445
Cosmos 2499 02 May 11:28:51 11:34:06 19° 69° (ENE) 11:39:33 435.465 / 435.565
UNISAT 6 02 May 11:30:16 11:34:24 31° 263° (W) 11:38:30 437.425
Oscar 11 02 May 11:37:31 11:40:21 17° 293° (WNW) 11:43:11 145.826/435.025
JAS-2 02 May 11:38:12 11:39:31 11° 53° (NE) 11:40:52 435.910
PHONESAT 2.4 02 May 11:42:26 11:45:34 69° 346° (NNW) 11:48:43 2401.200-2431.200
AISAT 02 May 11:43:32 11:46:13 16° 93° (E) 11:48:51 437.250
TIGRISAT 02 May 11:48:40 11:52:13 21° 265° (W) 11:55:45 435.000
FUNcube-1 02 May 11:48:47 11:51:13 15° 294° (WNW) 11:53:38 145.935
HO-68 02 May 11:51:17 11:52:32 10° 309° (NW) 11:53:47 435.675
ESTCUBE 1 02 May 11:59:00 12:03:04 32° 97° (E) 12:07:06 437.505/2401.250
HUMSAT D 02 May 12:01:00 12:04:47 38° 288° (WNW) 12:08:34 437.325/437.525
QB50P2 02 May 12:13:05 12:17:14 47° 261° (W) 12:21:24 145.880/145.840
DUCHIFAT 1 02 May 12:13:18 12:17:29 55° 260° (W) 12:21:42 145.980
POLYITAN 1 02 May 12:15:15 12:19:23 47° 261° (W) 12:23:33 437.675
ANTELSAT 02 May 12:15:56 12:17:02 11° 269° (W) 12:18:09 437.575/2403.000
AIST 1 02 May 12:17:27 12:21:52 82° 263° (W) 12:26:15
POPSAT HIP 1 02 May 12:18:01 12:22:07 44° 261° (W) 12:26:15 437.405
CUBEBUG 1 02 May 12:20:28 12:24:38 38° 98° (E) 12:28:45 437.445
QB50P1 02 May 12:21:23 12:25:25 40° 262° (W) 12:29:28 145.935-145.965
50 SAT 02 May 12:31:45 12:35:23 65° 101° (E) 12:39:01 437.505
Oscar 19 02 May 12:40:24 12:44:02 20° 65° (ENE) 12:47:41 437.125/150
DX 1 02 May 12:44:51 12:49:14 65° 101° (ESE) 12:53:34 434.975-435.025
VELOX 1 02 May 12:46:22 12:50:51 77° 101° (ESE) 12:55:18 145.980
UKube-1 02 May 12:52:10 12:56:29 64° 102° (ESE) 13:00:47 .
BUGSAT 1 02 May 12:57:24 13:01:16 35° 262° (W) 13:05:12 437.445
NANOSAT C BR1 02 May 12:57:57 13:00:44 17° 267° (W) 13:03:31 145.865
GONETS M04 02 May 12:59:42 13:08:17 63° 268° (W) 13:16:48
AO-85 02 May 13:03:09 13:08:33 70° 118° (ESE) 13:13:59 145.980
ISS 02 May 13:09:27 13:11:24 15° 23° (NNE) 13:13:20 145.825
JAS-2 02 May 13:17:17 13:23:05 71° 73° (ENE) 13:29:44 435.910
AISAT 02 May 13:18:37 13:22:52 43° 288° (WNW) 13:27:05 437.250
PHONESAT 2.4 02 May 13:19:34 13:22:38 48° 3° (N) 13:25:43 2401.200-2431.200
Cosmos 2499 02 May 13:20:06 13:27:53 79° 265° (W) 13:36:16 435.465 / 435.565
SPROUT 02 May 13:22:52 13:27:11 74° 102° (ESE) 13:31:26 437.525
ESTCUBE 1 02 May 13:36:11 13:39:40 22° 292° (WNW) 13:43:10 437.505/2401.250
CUBEBUG 1 02 May 13:57:35 14:00:37 18° 293° (WNW) 14:03:36 437.445
ITAMSAT 1 02 May 13:58:19 14:01:45 18° 64° (ENE) 14:05:11 435.822/435.867
TISAT 1 02 May 13:58:27 14:02:36 51° 100° (E) 14:06:41 437.305
Gurwin Techsat 1B 02 May 14:09:17 14:14:27 56° 72° (ENE) 14:19:39 435.225
AO-7 02 May 14:11:57 14:17:18 19° 53° (NE) 14:22:40 29.400- 29.500
Oscar 19 02 May 14:18:00 14:22:58 48° 261° (W) 14:27:59 437.125/150
DX 1 02 May 14:23:34 14:24:50 11° 297° (WNW) 14:26:07 434.975-435.025
BEESAT 02 May 14:23:53 14:26:59 17° 93° (E) 14:30:04 436.000
O/OREOS (USA 219) 02 May 14:29:35 14:33:15 24° 102° (ESE) 14:36:55 437.305
UKube-1 02 May 14:30:43 14:31:58 11° 297° (WNW) 14:33:12 .
ISS 02 May 14:45:00 14:48:16 88° 48° (NE) 14:51:32 145.825
AO-85 02 May 14:45:40 14:49:34 20° 315° (NW) 14:53:27 145.980
PHONESAT 2.4 02 May 14:56:28 14:59:38 74° 199° (SSW) 15:02:47 2401.200-2431.200
JAS-2 02 May 15:05:35 15:08:58 15° 273° (W) 15:12:34 435.910
Cosmos 2499 02 May 15:17:06 15:19:49 12° 282° (WNW) 15:22:34 435.465 / 435.565
ITUPSAT 1 02 May 15:17:23 15:22:07 63° 102° (ESE) 15:26:51 437.325
SWISSCUBE 02 May 15:26:57 15:31:45 89° 263° (W) 15:36:30 437.505
ITAMSAT 1 02 May 15:35:45 15:40:47 52° 260° (W) 15:45:50 435.822/435.867
TISAT 1 02 May 15:35:57 15:37:47 13° 295° (WNW) 15:39:36 437.305
Gurwin Techsat 1B 02 May 15:51:26 15:54:42 16° 268° (W) 15:58:00 435.225
BEESAT 02 May 16:00:26 16:04:57 44° 288° (WNW) 16:09:27 436.000
AO-7 02 May 16:00:40 16:08:57 89° 75° (ENE) 16:17:18 29.400- 29.500
CUSAT 1 02 May 16:03:56 16:07:10 52° 283° (WNW) 16:11:21 437.405
PCSat 02 May 16:07:02 16:12:26 82° 116° (ESE) 16:17:54 145.827
O/OREOS (USA 219) 02 May 16:08:27 16:12:29 30° 298° (WNW) 16:16:32 437.305
SO-50 02 May 16:16:01 16:20:32 44° 54° (NE) 16:24:54 436.795
KKS-1 02 May 16:32:21 16:36:42 49° 100° (E) 16:41:01 437.445
MOZHAYETS 4 02 May 16:33:41 16:37:48 33° 97° (E) 16:41:55
PHONESAT 2.4 02 May 16:34:15 16:36:08 15° 214° (SW) 16:38:01 2401.200-2431.200
DANDE 02 May 16:45:02 16:47:41 39° 284° (WNW) 16:50:53 436.750
STARS 02 May 16:49:50 16:53:58 38° 98° (E) 16:58:03 437.465
HORYU 2 02 May 16:55:33 17:00:00 71° 76° (ENE) 17:04:28 437.375
ITUPSAT 1 02 May 16:57:10 16:59:23 13° 297° (WNW) 17:01:37 437.325
CUTE-I 02 May 17:06:39 17:07:58 11° 60° (ENE) 17:09:18 437.470
NOAA 18 02 May 17:14:45 17:18:38 20° 63° (ENE) 17:22:29 137.9125
NOAA 15 02 May 17:45:37 17:50:29 40° 70° (ENE) 17:55:24 137.62
Cubesat XI-IV 02 May 17:47:23 17:51:49 27° 67° (ENE) 17:56:15 437.490
PCSat 02 May 17:53:21 17:56:31 15° 314° (NW) 17:59:42 145.827
SO-50 02 May 17:57:26 18:00:38 18° 251° (WSW) 18:03:45 436.795
AO-7 02 May 17:57:48 18:02:37 16° 268° (W) 18:07:29 29.400- 29.500
Cosmos 2491 02 May 18:08:07 18:16:48 57° 79° (ENE) 18:25:21 435.465 / 435.565
KKS-1 02 May 18:10:22 18:12:50 15° 295° (WNW) 18:15:16 437.445
MOZHAYETS 4 02 May 18:11:16 18:14:45 22° 292° (WNW) 18:18:14
DOVE 4 02 May 18:17:29 18:19:18 12° 61° (ENE) 18:21:08 437.250
CUBESAT XI-V 02 May 18:17:54 18:22:26 47° 99° (E) 18:26:58 437.345
GOMX 1 02 May 18:18:02 18:22:00 24° 66° (ENE) 18:26:08 467.674
YUBILEINY 02 May 18:18:42 18:25:52 30° 84° (E) 18:33:00 435.215
BEESAT 3 02 May 18:25:58 18:29:38 39° 115° (ESE) 18:33:20 437.485
STARS 02 May 18:27:04 18:30:00 18° 294° (WNW) 18:32:56 437.465
BEESAT 2 02 May 18:33:19 18:36:41 27° 113° (ESE) 18:40:04 435.950
M-CUBED/EXP-1 PRIME 02 May 18:33:25 18:37:45 37° 67° (ENE) 18:42:04 437.505
LilacSat-2 02 May 18:36:35 18:40:27 72° 77° (ENE) 18:44:19 437.200
HO-68 02 May 18:41:47 18:45:30 15° 55° (NE) 18:49:13 435.675
CUTE-I 02 May 18:41:53 18:47:12 89° 74° (ENE) 18:52:33 437.470
BRITE-PL 02 May 18:42:29 18:47:13 82° 76° (ENE) 18:52:24 437.365/2234.400
AUBIESAT-1 02 May 18:52:05 18:56:33 48° 68° (ENE) 19:00:59 437.475
JUGNU 02 May 18:52:13 18:54:13 12° 173° (S) 18:56:14 437.505
NOAA 18 02 May 18:53:28 18:58:50 53° 259° (W) 19:04:14 137.9125
CINEMA 3 02 May 19:03:07 19:03:49 10° 62° (ENE) 19:04:31 145.822/145.860
NOAA 15 02 May 19:26:16 19:30:22 23° 265° (W) 19:34:30 137.62
Cubesat XI-IV 02 May 19:26:54 19:31:43 35° 262° (W) 19:36:34 437.490
STRAND 1 02 May 19:32:42 19:36:47 24° 95° (E) 19:40:51 437.568
CUTE 1.7 + AOD 2 02 May 19:33:24 19:36:07 17° 67° (ENE) 19:38:49 437.475
DOVE 4 02 May 19:51:06 19:56:09 84° 259° (WSW) 20:01:28 437.250
GOMX 1 02 May 19:55:10 19:59:47 38° 264° (W) 20:04:41 467.674
CUBESAT XI-V 02 May 19:56:29 19:59:25 17° 294° (WNW) 20:02:21 437.345
Cosmos 2504 02 May 19:57:43 20:03:44 29° 86° (E) 20:09:39 435.465 / 435.565
SEEDS 02 May 20:00:05 20:03:27 24° 70° (ENE) 20:06:49 437.485
COMPASS 1 02 May 20:04:06 20:07:02 19° 68° (ENE) 20:09:57 437.405
BEESAT 3 02 May 20:04:47 20:07:30 18° 312° (NW) 20:10:13 437.485
AIST 2 02 May 20:04:50 20:07:37 18° 110° (ESE) 20:10:26 435.215
Cosmos 2491 02 May 20:05:54 20:13:01 29° 277° (W) 20:20:05 435.465 / 435.565
M-CUBED/EXP-1 PRIME 02 May 20:08:40 20:12:18 22° 261° (W) 20:15:57 437.505
BEESAT 2 02 May 20:11:12 20:14:29 24° 309° (NW) 20:17:47 435.950
YUBILEINY 02 May 20:13:37 20:22:07 55° 282° (WNW) 20:30:39 435.215
HO-68 02 May 20:24:58 20:32:07 83° 73° (ENE) 20:39:18 435.675
AUBIESAT-1 02 May 20:28:15 20:31:11 16° 262° (W) 20:34:06 437.475
AAUSAT CUBESAT 2 02 May 20:34:06 20:37:48 33° 72° (ENE) 20:41:31 437.432
CANX-2 02 May 20:34:33 20:38:46 81° 258° (WSW) 20:43:00 2200.000
CINEMA 3 02 May 20:35:09 20:40:09 90° 275° (W) 20:45:13 145.822/145.860
JUGNU 02 May 20:39:45 20:42:21 13° 183° (S) 20:44:58 437.505
RS-15 02 May 20:49:03 20:58:25 32° 104° (ESE) 21:08:08 29.354- 29.394
Oscar 11 02 May 20:53:49 20:57:15 23° 69° (ENE) 21:00:41 145.826/435.025
FUNcube-1 02 May 21:04:59 21:08:46 27° 70° (ENE) 21:12:30 145.935
CUTE 1.7 + AOD 2 02 May 21:07:45 21:11:39 36° 262° (W) 21:15:34 437.475
STRAND 1 02 May 21:11:21 21:16:00 36° 290° (WNW) 21:20:39 437.568
UWE-3 02 May 21:15:37 21:20:10 56° 75° (ENE) 21:24:40 435.000/436.395/437.385
PRISM 02 May 21:20:07 21:24:17 64° 102° (ESE) 21:28:25 437.425
CUBEBUG 2 02 May 21:22:50 21:27:36 84° 255° (WSW) 21:32:19 437.445
SEEDS 02 May 21:35:39 21:39:03 24° 265° (W) 21:42:29 437.485
AO-85 02 May 21:37:48 21:42:10 34° 51° (NE) 21:46:09 145.980
COMPASS 1 02 May 21:38:43 21:42:22 30° 263° (W) 21:46:03 437.405
SRMSAT 02 May 21:39:11 21:41:52 13° 176° (S) 21:44:33 437.500
AIST 2 02 May 21:41:58 21:45:49 37° 306° (NW) 21:49:41 435.215
ZACube-1 02 May 21:46:21 21:50:54 83° 79° (E) 21:55:24 437.345
DELFI C3 02 May 21:47:40 21:51:24 43° 74° (ENE) 21:55:10 145.870
Cosmos 2504 02 May 21:49:52 21:56:47 44° 283° (WNW) 22:03:34 435.465 / 435.565
AAUSAT CUBESAT 2 02 May 22:10:42 22:13:22 17° 267° (W) 22:16:03 437.432
HO-68 02 May 22:16:30 22:20:33 16° 269° (W) 22:24:36 435.675
